STARLINK-4730, 53794

Orbit data source: Space-Track

STARLINK-4730, 53794 is a payload satellite owned by SpaceX/Seattle (US) in LEO that was launched on Sun, 11 Sep 2022 UTC via an FALCON 9 launch vehicle from the Air Force Eastern Test Range (AFETR). Payload-class satellites include a variety of spacecraft equipped with specific instruments for various scientific and technological missions. These include communications satellites like Starlink; space stations such as the ISS; scientific satellites like the Hubble; Earth observation satellites from companies like Planet Labs, Umbra, and HawkEye 360; GPS; miniature CubeSats for education and research; and military/defense satellites.

Loading next visibility...
Identifier
53794, 2022-111X
Orbit
LEO
Country
Flag of USUS
Related business
Manufacturer
SpaceX/Seattle
Mission
Operational Commercial Communications
Bus & Motor
STARLINK, Unknown motor
Mass
305 kg wet, ~290 kg dry
Launch date (UTC)
2022-09-11 (3 years ago)
Launch vehicle
FALCON 9
Launch site
Air Force Eastern Test Range (AFETR)
Object type
Payload
Rocket body
Debris
Shape & HBR
Box + 1 Pan, 10.1 m
Radar Cross Section
13.562 m², Large (>1 m²)

Expand to show TLE details & history
Last TLE update: 1 day ago

TLE from 1 day ago
0 STARLINK-4730
1 53794U 22111X   25340.39301867 -.00000006  00000-0  17691-4 0  9991
2 53794  53.2195 332.7947 0001373  97.0747 263.0401 15.08850265179607
Epoch: 2025-12-06T09:25Z
TLE epoch observation values (Epoch: 2025-12-06T09:25:56.813Z)
Latitude
-0.00003°
Longitude
115.88655°
Altitude
540.725 km
Speed
7.593 km/s
True Right ascension
22h 11m 10s
True Declination
0° 00' 00"
Sunlit
Object was in daylight at epoch
Visualization orbit readout
Latitude
Unknown
Longitude
Unknown
Altitude
Unknown
Speed
Unknown
Apparent Right ascension
Unknown
Apparent Declination
Unknown
Sunlit
N/A
Visualization observer readout
Local Sidereal Time
10:18:09
Azimuth
Unknown
Elevation
Unknown
Doppler factor
Unknown
Orbital elements
Apogee altitude
540.906 km
Perigee altitude
539.007 km
Semi-major axis
6,918.094 km
Eccentricity
0.00014
Inclination
53.2195°
RAAN
332.7947°
Arg. of periapsis
97.0747°
True anomaly
263.02448°
Mean anomaly
263.0401°
Eccentric anomaly
263.03229°
Mean motion
3.77193 °/min
Orbital period
95.44 mins
BSTAR
0.000017691
Loading maneuver chart data...
Computing Atmospheric mass density...
Loading historical data...
Loading historical data...
Loading historical data...
Loading historical data...
Loading historical data...
Loading historical data...
Loading historical data...

Documentation

Showing up to 5 results
|